Location: ?
(35.3436°N, 139.3168°E)
Time: 20:48:57
(UTC+00:00)

Cosmos 1190 Rocket - Pass Details

Date: 29 October 2020
Orbit: 757 x 779 km, 74.1° (Epoch: 24 November)

Event Time Altitude Azimuth Distance (km) Brightness Sun altitude
Rises 20:27:10 0° 212° (SSW) 3,227 7.0 -7.8°
Reaches altitude 10° 20:29:38 10° 218° (SW) 2,301 6.2 -7.3°
Maximum altitude 20:34:38 46° 291° (WNW) 1,027 4.3 -6.3°
Drops below altitude 10° 20:39:38 10° 4° (N) 2,300 6.4 -5.3°
Sets 20:42:06 0° 11° (N) 3,227 7.2 -4.8°
